GW1815 Weather Reports


Display with metric or nautical units.
time (UTC)temp
F
wind
direction
speed
MPH
gust
MPH
rain 1hr
in
rain 24hr
in
rain mn
in
humidity
%
barometer
mb
20260831034539 71 187 4.0 11.0 0.00 0.66 0.66 93 1013.7
20260831033046 71 192 2.0 7.0 0.00 0.66 0.66 93 1014.1
20260831031534 71 224 1.0 5.0 0.00 0.66 0.66 93 1014.9
20260831030048 71 163 2.0 7.0 0.00 0.66 0.66 93 1014.9
20260831024546 71 186 1.0 5.0 0.00 0.66 0.66 93 1015.0
20260831023037 71 210 2.0 8.0 0.00 0.66 0.66 93 1014.2
20260831021539 71 173 2.0 9.0 0.00 0.66 0.66 92 1014.6
20260831020040 71 210 1.0 5.0 0.00 0.66 0.66 92 1014.8
20260831014540 71 195 3.0 7.0 0.00 0.66 0.66 92 1014.7
20260831013045 71 209 4.0 10.0 0.00 0.66 0.66 92 1014.3
20260831011544 71 192 3.0 11.0 0.00 0.66 0.66 92 1014.5
20260831010036 71 221 3.0 13.0 0.00 0.66 0.66 92 1014.4
20260831004542 71 169 5.0 17.0 0.01 0.66 0.66 92 1014.1
20260831003041 71 174 4.0 14.0 0.02 0.66 0.66 92 1014.1
20260831001540 71 184 4.0 11.0 0.02 0.66 0.66 92 1013.4
20260831000036 71 164 5.0 11.0 0.02 0.66 0.66 92 1013.4
20260830234543 71 143 3.0 13.0 0.01 0.65 0.65 92 1013.9
20260830233040 71 180 4.0 11.0 0.02 0.64 0.64 92 1014.2
20260830231540 71 196 3.0 9.0 0.02 0.64 0.64 92 1014.3
20260830230037 71 166 3.0 11.0 0.02 0.64 0.64 92 1014.4
20260830224539 71 183 5.0 15.0 0.01 0.66 0.63 92 1014.4
20260830223039 71 177 3.0 13.0 0.02 0.65 0.62 92 1014.4
20260830221541 71 111 4.0 10.0 0.04 0.65 0.62 92 1014.4
20260830220038 72 191 6.0 12.0 0.04 0.65 0.62 92 1014.2
20260830214539 71 176 2.0 6.0 0.04 0.66 0.62 92 1014.3
20260830213034 71 207 1.0 9.0 0.01 0.63 0.58 92 1014.5
20260830211548 71 188 2.0 8.0 0.01 0.62 0.58 91 1014.1
20260830210042 71 180 5.0 11.0 0.24 0.62 0.58 91 1014.4
20260830204537 71 200 3.0 8.0 0.31 0.62 0.58 90 1014.6
20260830203037 72 182 3.0 7.0 0.31 0.62 0.58 90 1014.4
20260830201539 72 194 1.0 10.0 0.30 0.61 0.57 89 1015.2
20260830200038 72 190 2.0 8.0 0.06 0.37 0.33 89 1015.0
20260830194553 72 180 1.0 5.0 0.01 0.31 0.27 88 1014.4
20260830193034 72 236 3.0 18.0 0.01 0.31 0.27 88 1014.5
20260830191540 72 327 5.0 15.0 0.02 0.31 0.27 87 1013.8
20260830190039 72 281 5.0 15.0 0.17 0.31 0.27 86 1013.6
20260830184541 73 213 7.0 23.0 0.16 0.30 0.26 85 1013.6
20260830183041 74 229 8.0 17.0 0.16 0.30 0.26 82 1013.4
20260830181540 77 155 1.0 7.0 0.14 0.28 0.24 79 1013.2
20260830180038 78 286 1.0 8.0 0.00 0.14 0.10 74 1013.0
20260830174534 79 117 4.0 17.0 0.00 0.14 0.10 69 1013.0
20260830173038 81 171 9.0 19.0 0.00 0.14 0.10 67 1013.2
20260830171543 83 171 6.0 24.0 0.00 0.14 0.10 63 1013.4
20260830170039 85 240 9.0 26.0 0.00 0.14 0.10 62 1013.3
20260830164546 85 167 8.0 16.0 0.00 0.14 0.10 68 1013.0
20260830163047 83 212 8.0 19.0 0.00 0.14 0.10 69 1013.4
20260830161544 82 203 10.0 22.0 0.00 0.14 0.10 69 1013.4
20260830160055 81 218 8.0 18.0 0.00 0.14 0.10 72 1013.6
20260830154539 80 165 8.0 19.0 0.00 0.14 0.10 76 1013.4
20260830153043 78 168 10.0 21.0 0.00 0.14 0.10 79 1013.5
20260830151544 76 205 7.0 21.0 0.00 0.14 0.10 81 1013.8
20260830150040 74 180 8.0 18.0 0.00 0.14 0.10 85 1013.8
20260830144539 72 183 8.0 19.0 0.01 0.14 0.10 89 1013.9
20260830143044 70 154 7.0 14.0 0.01 0.14 0.10 91 1014.0
20260830141540 69 175 6.0 12.0 0.01 0.14 0.10 91 1014.2
20260830140047 69 181 5.0 11.0 0.01 0.14 0.10 91 1014.1
20260830134551 68 116 5.0 14.0 0.00 0.13 0.09 92 1014.3
20260830133043 68 166 6.0 12.0 0.06 0.13 0.09 91 1014.4
20260830131547 67 130 5.0 16.0 0.07 0.13 0.09 91 1014.7
20260830130054 67 187 2.0 8.0 0.07 0.13 0.09 90 1014.6
20260830124543 68 158 5.0 11.0 0.08 0.13 0.09 89 1014.9
20260830123047 68 153 1.0 7.0 0.02 0.07 0.03 89 1015.5
20260830121553 68 186 5.0 15.0 0.01 0.06 0.02 89 1015.0
20260830120037 68 170 2.0 10.0 0.01 0.06 0.02 88 1015.2
20260830114533 68 164 2.0 10.0 0.00 0.05 0.01 88 1015.1
20260830113038 68 200 2.0 6.0 0.00 0.05 0.01 88 1014.9
20260830111543 68 188 2.0 5.0 0.01 0.05 0.01 87 1014.8
20260830110038 68 11 3.0 7.0 0.01 0.05 0.01 86 1014.9
20260830104534 68 0 0.0 2.0 0.01 0.05 0.01 85 1014.4
20260830103046 69 186 2.0 3.0 0.01 0.05 0.01 84 1014.3
20260830101539 68 340 1.0 3.0 0.00 0.04 0.00 82 1014.9
20260830100041 68 295 4.0 9.0 0.00 0.04 0.00 83 1015.3
20260830094544 68 0 1.0 7.0 0.00 0.04 0.00 83 1014.1
20260830093040 68 202 2.0 10.0 0.00 0.04 0.00 83 1013.9
20260830091538 68 139 4.0 9.0 0.00 0.04 0.00 82 1013.8
20260830090058 69 192 3.0 9.0 0.00 0.04 0.00 82 1013.8
20260830084542 69 184 3.0 8.0 0.00 0.04 0.00 81 1014.0
20260830083046 70 168 2.0 11.0 0.00 0.04 0.00 80 1013.8
20260830081535 70 109 4.0 13.0 0.00 0.04 0.00 78 1014.2
20260830080040 69 163 4.0 12.0 0.00 0.04 0.00 79 1014.4
20260830074539 69 202 4.0 11.0 0.00 0.04 0.00 81 1014.5
20260830073047 69 184 3.0 11.0 0.00 0.04 0.00 80 1014.7
20260830071538 69 205 3.0 9.0 0.00 0.04 0.00 80 1014.9
20260830070041 69 205 3.0 10.0 0.00 0.04 0.00 79 1014.9
20260830064540 69 169 3.0 8.0 0.00 0.04 0.00 79 1015.2
20260830063039 70 208 3.0 10.0 0.00 0.04 0.00 79 1015.3
20260830061554 70 171 3.0 9.0 0.00 0.04 0.00 79 1015.4
20260830060039 70 158 4.0 7.0 0.00 0.04 0.00 79 1015.5
20260830054549 70 220 3.0 12.0 0.00 0.04 0.00 79 1015.4
20260830053039 70 207 4.0 12.0 0.00 0.04 0.00 78 1015.3
20260830051539 71 170 4.0 12.0 0.00 0.04 0.00 78 1015.3
20260830050041 71 196 7.0 14.0 0.00 0.04 0.00 78 1015.1
20260830044541 71 185 7.0 15.0 0.00 0.04 0.04 78 1015.1
20260830043043 71 149 3.0 15.0 0.00 0.04 0.04 78 1015.2
20260830041550 71 199 6.0 13.0 0.00 0.04 0.04 79 1015.2
20260830040039 71 203 5.0 16.0 0.00 0.04 0.04 79 1015.4